Showing default

GHGSAT-C6, 56204

Orbit data source: Space-Track

GHGSAT-C6, 56204 is a payload satellite owned by GHG (CA) in SSO that was launched on Sat, 15 Apr 2023 UTC via an FALCON 9 launch vehicle from the Air Force Western Test Range (AFWTR). Payload-class satellites include a variety of spacecraft equipped with specific instruments for various scientific and technological missions. These include communications satellites like Starlink; space stations such as the ISS; scientific satellites like the Hubble; Earth observation satellites from companies like Planet Labs, Umbra, and HawkEye 360; GPS; miniature CubeSats for education and research; and military/defense satellites.

Loading next visibility...
Identifier
56204, 2023-054AC
Orbit
SSO
Last TLE update
7 hours ago
Origin
Manufacturer
UTIAS-SFL
Mission
Operational Commercial Science
Bus & Motor
NEMO-V1, Unknown motor
Mass
15 kg wet, 15 kg dry
Launch date (UTC)
2023-04-15 (2 years ago)
Launch vehicle
FALCON 9
Launch site
Air Force Western Test Range (AFWTR)
Object type
Payload
Rocket body
Debris
Shape & HBR
Box, 0.4 m
Radar Cross Section
0.100 m², Medium (>0.1 m² and < 1m²)

Expand to show TLE details & history

TLE from 7 hours ago
0 GHGSAT-C6
1 56204U 23054AC  25192.19604720  .00005813  00000-0  13765-3 0  9991
2 56204  97.3297  93.3789 0008688 189.3581 170.7506 15.42138884125727
Epoch: 2025-07-11T04:42Z
TLE epoch observation values (Epoch: 2025-07-11T04:42:18.478Z)
Latitude
0.00002°
Longitude
93.45046°
Altitude
448.768 km
Speed
7.64 km/s
True Right ascension
06h 13m 30s
True Declination
0° 00' 00"
Sunlit
Object was in daylight at epoch
Visualization orbit readout
Latitude
71.14133°
Longitude
-64.27618°
Altitude
451.138 km
Speed
7.649 km/s
Apparent Right ascension
13h 29m 15s
Apparent Declination
29° 10' 51"
Sunlit
Object is in daylight
Visualization observer readout
Local Sidereal Time
23:41:59
Azimuth
335.74° NNW
Elevation
-16.545°
Doppler factor
1
Orbital elements
Apogee altitude
442.652 km
Perigee altitude
430.81 km
Semi-major axis
6,814.868 km
Eccentricity
0.00087
Inclination
97.3297°
RAAN
93.3789°
Arg. of periapsis
189.3581°
True anomaly
Unknown
Mean anomaly
170.7506°
Eccentric anomaly
Unknown
Mean motion
3.85795 °/min
Orbital period
93.31 mins
BSTAR
0.00013765
Loading maneuver chart data...
Loading SW <> Apogee altitude chart data...
Loading historical data...
Loading historical data...
Loading historical data...
Loading historical data...
Loading historical data...
Loading historical data...
Loading historical data...

GHGSAT-C6 Visibility forecast

Observer location: undefined°, undefined°

Span
Click to sort rows by Start time (UTC) header in descending order
Start Az.
Max El. time (UTC)
Max El. Az.
Max El.
End time (UTC)
End Az.
5 mins2025-07-11 17:17:57.574Z152.525° SSE2025-07-11 17:19:57.574Z113.19° SE38.681°2025-07-11 17:22:57.574Z358.448° N
4 mins2025-07-12 06:11:57.574Z23.442° NE2025-07-12 06:13:57.574Z142.508° SSE41.425°2025-07-12 06:15:57.574Z182.426° SSW
|